[[{"header":{"parameterUnit":"m.s-1","parameterCategory":1,"la1":30.2991,"la2":30.254,"lo1":-89.0895,"lo2":-89.0444,"dy":0.0017,"dx":0.0017,"nx":28,"ny":28,"refTime":"2023-10-10T21:00:00:Z","depth":0,"parameterNumber":2,"parameterNumberName":"U-component_of_WINDS"},"data":[0,0,0,0,0,0,0,0,0,0,0,0,0,0,0,0,0,0,0,0,0,0,0,0,0,0,0,0,0,0,0,0,0,0,0,0,0,0,0,0,0,0,0,0,0,0,0,0,0,0,0,0,0,0,0,0,0,0,-8.9367,-8.9368,0,-8.9485,-8.9486,-8.9487,-8.9327,-8.9321,-8.9315,-8.931,-8.9426,-8.9434,-8.9442,0,0,0,0,0,0,0,0,0,0,0,0,0,-8.8997,-8.9004,-8.9366,-8.9368,-8.9369,-8.9484,-8.9486,-8.9488,-8.9328,-8.9321,-8.9314,-8.9307,-8.9423,-8.9433,-8.9443,0,0,0,0,0,0,0,0,0,0,0,0,0,-8.914,-8.9007,-8.9366,-8.9304,-8.9299,-8.9484,-8.9486,-8.9488,-8.9329,-8.9321,-8.9312,-8.9304,-8.942,-8.9432,-8.9444,-8.9695,0,0,-8.9483,-8.9488,0,0,0,0,0,0,0,0,-8.9132,-8.9154,-8.9311,-8.9308,-8.9304,-8.9382,-8.9398,-8.9557,-8.9331,-8.9318,-8.931,-8.93,-8.9418,-8.943,-8.9471,-8.97,-8.9705,-8.9484,-8.9492,-8.9497,-8.9501,0,0,0,0,0,0,0,-8.9123,-8.9148,-8.9413,-8.9314,-8.9309,-8.9268,-8.9279,-8.9427,-8.9414,-8.9318,-8.9307,-8.9323,-8.9414,-8.9459,-8.9472,-8.9707,-8.9484,-8.9495,-8.9503,-8.9508,-9.0147,-9.0156,0,0,0,0,0,0,-8.9121,-8.9141,-8.9409,-8.9416,-8.9195,-8.9282,-8.9294,-8.9366,-8.9412,-8.9411,-8.9331,-8.9315,-8.9442,-8.9458,-8.9476,-8.9773,-8.9497,-8.9509,-8.9516,-9.0138,-9.0149,-9.0159,0,0,0,0,0,0,-8.9114,-8.9146,-8.9404,-8.9276,-8.9305,-8.9297,-8.9379,-8.9373,-8.9417,-8.9422,-8.9418,-8.938,-8.9436,-8.9458,-8.9642,-8.9774,-8.9515,-8.9526,-9.0127,-9.0141,-9.0154,-9.0368,0,0,0,0,0,0,-8.9104,-8.9145,-8.9241,-8.9279,-8.9313,-8.9571,-8.9387,-8.9381,-8.944,-8.9422,-8.9467,-8.9466,-8.9431,-8.9624,-8.9655,-8.9787,-8.9536,-9.0115,-9.0133,-9.015,-9.035,-9.0388,-9.0421,0,0,0,0,0,-8.9091,-8.9295,-8.9247,-8.928,-8.9434,-8.9579,-8.9598,-8.9555,-8.9452,-8.9548,-8.955,-8.9464,-8.9755,-8.9644,-8.9677,-8.9816,-9.0106,-9.0128,-9.0148,-9.0333,-9.0381,-9.042,0,0,0,0,0,0,-8.9271,-8.9299,-8.9246,-8.9469,-8.9523,-8.9551,-8.9671,-8.9606,-8.9689,-8.9668,-8.9608,-8.962,-8.9817,-8.9834,-8.971,-9.006,-8.9913,-8.9942,-9.0043,-9.0087,-9.0123,-9.0115,-8.9547,0,0,0,0,0,-8.9337,-8.9455,-8.9472,-8.9667,-8.9697,-8.968,-8.9741,-8.9704,-8.9757,-8.9778,-8.9794,-8.9847,-8.995,-9.0019,-9.0114,-9.035,-9.0358,-9.0462,-9.0498,-9.0527,-9.0553,-9.068,-9.0726,-9.0229,-9.0228,-9.0228,0,0,-8.9474,-8.9504,-8.9581,-8.9704,-8.9741,-8.9863,-8.97,-8.9835,-8.9925,-8.9798,-8.9973,-8.9987,-9.0042,-9.0254,-9.0348,-9.0274,-9.0692,-9.0554,-9.0578,-9.0588,-9.0706,-9.0754,-9.0796,-9.0243,-9.024,-9.0238,0,0,-8.9786,-8.9821,-8.9987,-9.0029,-9.0088,-9.0076,-9.0116,-9.0155,-9.016,-9.0335,-9.0243,-9.0347,-9.0526,-9.0569,-9.0615,-9.0944,-9.0868,-9.0976,-9.1164,-9.1288,-9.1327,-9.1362,-9.148,-9.1523,-9.1002,-9.1002,-9.1003,0,-8.9948,-9.013,-9.0081,-9.0224,-9.028,-9.0173,-9.0341,-9.0382,-9.047,-9.051,-9.0427,-9.065,-9.0679,-9.09,-9.098,-9.102,-9.1064,-9.0972,-9.1326,-9.136,-9.1392,-9.1504,-9.1548,-9.1015,-9.1014,-9.1012,-9.1011,0,-9.0327,-9.0454,-9.0581,-9.0671,-9.0741,-9.0896,-9.0869,-9.0946,-9.0902,-9.0898,-9.1078,-9.1109,-9.1209,-9.1258,-9.1215,-9.1473,-9.1426,-9.1336,-9.1187,-9.1453,-9.1557,-9.16,-9.1034,-9.1029,-9.1025,-9.1022,0,0,-9.0756,-9.0817,-9.0865,-9.0905,-9.0963,-9.1059,-9.1208,-9.1308,-9.1375,-9.1438,-9.1562,-9.1716,-9.1633,-9.1685,-9.1646,-9.1755,-9.2015,-9.165,-9.1651,-9.1718,-9.2301,-9.237,-9.2421,-9.1964,-9.1972,-9.1978,-9.2297,0,-9.1069,-9.133,-9.1291,-9.1541,-9.1658,-9.1558,-9.1687,-9.1736,-9.1737,-9.1834,-9.1832,-9.1943,-9.1825,-9.1856,-9.1959,-9.1962,-9.2131,-9.1938,-9.2078,-9.2083,-9.2069,-9.2475,-9.2548,-9.2847,-9.2337,-9.2344,-9.2349,0,-9.1469,-9.155,-9.1814,-9.1855,-9.1902,-9.202,-9.2108,-9.2203,-9.2256,-9.2248,-9.2307,-9.2248,-9.2395,-9.2244,-9.2446,-9.2315,-9.2369,-9.2379,-9.239,-9.2402,-9.2233,-9.2499,-9.2941,-9.2987,-9.2413,-9.2407,-9.2403,0,-9.1758,-9.1932,-9.2113,-9.2149,-9.2201,-9.2286,-9.2311,-9.2355,-9.2418,-9.2494,-9.2534,-9.2626,-9.2677,-9.2749,-9.2716,-9.2608,-9.2924,-9.2769,-9.2921,-9.2923,-9.2993,-9.299,-9.3452,-9.3027,-9.3027,-9.3026,-9.3025,0,-9.2112,-9.2278,-9.2243,-9.2355,-9.2537,-9.2488,-9.2669,-9.2681,-9.2722,-9.2833,-9.275,-9.2855,-9.2805,-9.2906,-9.288,-9.3052,-9.3075,-9.3072,-9.3064,-9.3081,-9.3081,-9.3116,-9.3095,-9.3038,-9.3035,-9.3033,-9.3031,0,-9.2466,-9.2449,-9.264,-9.2674,-9.2686,-9.2819,-9.2846,-9.295,-9.2943,-9.3084,-9.3114,-9.3104,-9.3219,-9.3193,-9.3318,-9.3301,-9.3517,-9.3482,-9.3501,-9.3493,-9.3646,-9.3633,-9.4148,-9.4213,-9.3746,-9.375,-9.3754,0,-9.2694,-9.282,-9.2868,-9.2937,-9.2969,-9.3082,-9.3146,-9.3102,-9.3172,-9.3242,-9.3337,-9.3445,-9.3529,-9.3717,-9.372,-9.3815,-9.3782,-9.3956,-9.3795,-9.3809,-9.3785,-9.3779,-9.3791,-9.3988,-9.3993,-9.3998,-9.4001,0,-9.3101,-9.3087,-9.3184,-9.3279,-9.3359,-9.3431,-9.3494,-9.3555,-9.3517,-9.3599,-9.3717,-9.3783,-9.3911,-9.4019,-9.4107,-9.413,-9.4061,-9.4052,-9.4092,-9.4111,-9.4117,-9.4117,-9.3589,-9.404,-9.4036,-9.4033,-9.4031,-9.403,-9.3399,-9.3507,-9.3558,-9.3669,-9.3712,-9.3774,-9.3874,-9.388,-9.3979,-9.4082,-9.4049,-9.4184,-9.4232,-9.4343,-9.4377,-9.448,-9.4414,-9.4473,-9.4488,-9.4503,-9.4523,-9.41,-9.4496,-9.4495,-9.4494,-9.4493,-9.4492,0,-9.3803,-9.3831,-9.3934,-9.4027,-9.4114,-9.4042,-9.4109,-9.4186,-9.4306,-9.4358,-9.4443,-9.4579,-9.4683,-9.4694,-9.4792,-9.4872,-9.4843,-9.49,-9.4894,-9.49,-9.4575,-9.4531,-9.4922,-9.4922,-9.4922,-9.4922,-9.4922,-9.4922,-9.4023,-9.4201,-9.4194,-9.4392,-9.4417,-9.4551,-9.4595,-9.4651,-9.4693,-9.4849,-9.4936,-9.4943,-9.4978,-9.5078,-9.517,-9.5171,-9.5211,-9.5281,-9.5269,-9.4966,-9.4923,-9.4882,-9.484,-9.529,-9.529,-9.5585,-9.5588,-9.559]},{"header":{"parameterUnit":"m.s-1","parameterCategory":1,"la1":30.2991,"la2":30.254,"lo1":-89.0895,"lo2":-89.0444,"dy":0.0017,"dx":0.0017,"nx":28,"ny":28,"refTime":"2023-10-10T21:00:00:Z","depth":0,"parameterNumber":3,"parameterNumberName":"V-component_of_WINDS"},"data":[0,0,0,0,0,0,0,0,0,0,0,0,0,0,0,0,0,0,0,0,0,0,0,0,0,0,0,0,0,0,0,0,0,0,0,0,0,0,0,0,0,0,0,0,0,0,0,0,0,0,0,0,0,0,0,0,0,0,-7.4184,-7.4184,0,-7.4153,-7.4153,-7.4152,-7.3995,-7.3991,-7.3987,-7.3984,-7.3955,-7.3957,-7.396,0,0,0,0,0,0,0,0,0,0,0,0,0,-7.4108,-7.4111,-7.4184,-7.4184,-7.4183,-7.4153,-7.4153,-7.4152,-7.3995,-7.3991,-7.3986,-7.3982,-7.3954,-7.3957,-7.396,0,0,0,0,0,0,0,0,0,0,0,0,0,-7.4116,-7.4111,-7.4184,-7.4101,-7.4094,-7.4153,-7.4153,-7.4152,-7.3996,-7.3991,-7.3985,-7.398,-7.3953,-7.3956,-7.3961,-7.4098,0,0,-7.3973,-7.3975,0,0,0,0,0,0,0,0,-7.4116,-7.4119,-7.4114,-7.4107,-7.4099,-7.4072,-7.4115,-7.4134,-7.3998,-7.4033,-7.3984,-7.3977,-7.3998,-7.3998,-7.4005,-7.4097,-7.4095,-7.3973,-7.3976,-7.3978,-7.3979,0,0,0,0,0,0,0,-7.4115,-7.4119,-7.4172,-7.4114,-7.4105,-7.4066,-7.4061,-7.4118,-7.4048,-7.403,-7.4018,-7.4017,-7.3993,-7.4001,-7.4003,-7.4095,-7.3973,-7.3977,-7.3979,-7.3981,-7.4296,-7.4302,0,0,0,0,0,0,-7.4126,-7.412,-7.4173,-7.4171,-7.4093,-7.4072,-7.4066,-7.4086,-7.4047,-7.4035,-7.4022,-7.401,-7.3997,-7.3998,-7.4001,-7.4158,-7.3977,-7.3981,-7.3984,-7.429,-7.4298,-7.4304,0,0,0,0,0,0,-7.4125,-7.4132,-7.4174,-7.4142,-7.4144,-7.4079,-7.4103,-7.4089,-7.4097,-7.404,-7.4027,-7.4043,-7.3993,-7.3996,-7.4075,-7.4155,-7.3983,-7.3987,-7.4283,-7.4293,-7.4301,-7.4475,0,0,0,0,0,0,-7.4124,-7.4133,-7.4185,-7.4144,-7.4147,-7.4248,-7.4108,-7.4092,-7.4104,-7.4088,-7.4057,-7.4046,-7.3989,-7.4069,-7.4079,-7.4158,-7.399,-7.4276,-7.4288,-7.4298,-7.4462,-7.4489,-7.4512,0,0,0,0,0,-7.4122,-7.4236,-7.4188,-7.4195,-7.421,-7.4253,-7.4254,-7.4185,-7.4111,-7.4162,-7.4126,-7.4047,-7.4145,-7.4079,-7.4088,-7.417,-7.427,-7.4284,-7.4297,-7.4451,-7.4483,-7.4511,0,0,0,0,0,0,-7.4289,-7.4229,-7.4175,-7.428,-7.4273,-7.4226,-7.4289,-7.4222,-7.4236,-7.4221,-7.4134,-7.4129,-7.422,-7.4203,-7.413,-7.43,-7.4194,-7.421,-7.4308,-7.4339,-7.4363,-7.4365,-7.3993,0,0,0,0,0,-7.4337,-7.4377,-7.4323,-7.4421,-7.4419,-7.4355,-7.4372,-7.4318,-7.4307,-7.4304,-7.4273,-7.4266,-7.4295,-7.4316,-7.4339,-7.4458,-7.4449,-7.4519,-7.4544,-7.4565,-7.458,-7.464,-7.467,-7.4348,-7.4348,-7.4348,0,0,-7.4439,-7.4411,-7.4442,-7.4453,-7.4441,-7.4484,-7.4354,-7.4405,-7.4436,-7.4312,-7.4384,-7.4361,-7.4348,-7.4447,-7.4489,-7.4435,-7.4666,-7.4582,-7.4599,-7.4602,-7.4657,-7.4688,-7.4715,-7.4357,-7.4355,-7.4354,0,0,-7.4646,-7.4629,-7.4708,-7.4698,-7.468,-7.4637,-7.4656,-7.4619,-7.4599,-7.467,-7.4577,-7.4613,-7.4665,-7.4658,-7.4662,-7.4865,-7.4793,-7.4875,-7.5006,-7.5066,-7.5092,-7.5114,-7.5185,-7.5212,-7.489,-7.4891,-7.4891,0,-7.4775,-7.4835,-7.4757,-7.4813,-7.4821,-7.4709,-7.4788,-7.4782,-7.4775,-7.4782,-7.4722,-7.4783,-7.4766,-7.4862,-7.4911,-7.4918,-7.4937,-7.4878,-7.5094,-7.5116,-7.5135,-7.5202,-7.523,-7.4901,-7.49,-7.4898,-7.4898,0,-7.4993,-7.5036,-7.5102,-7.5095,-7.511,-7.5178,-7.511,-7.5135,-7.508,-7.5043,-7.5116,-7.5092,-7.5108,-7.5127,-7.5075,-7.5215,-7.5182,-7.5109,-7.5002,-7.5177,-7.5239,-7.5264,-7.4915,-7.4911,-7.4908,-7.4906,0,0,-7.5305,-7.5253,-7.5278,-7.5273,-7.5245,-7.5277,-7.534,-7.5354,-7.5376,-7.5375,-7.5425,-7.547,-7.5402,-7.5407,-7.5353,-7.5406,-7.5567,-7.5326,-7.5324,-7.5371,-7.5719,-7.5774,-7.5805,-7.5519,-7.5524,-7.5527,-7.572,0,-7.5502,-7.5604,-7.5535,-7.5649,-7.5687,-7.5581,-7.5635,-7.5624,-7.5591,-7.5619,-7.5583,-7.5616,-7.5524,-7.5526,-7.5574,-7.5537,-7.5636,-7.5523,-7.5565,-7.5567,-7.5571,-7.5837,-7.5895,-7.6078,-7.5744,-7.5748,-7.5751,0,-7.5745,-7.5752,-7.587,-7.5832,-7.5846,-7.5896,-7.5902,-7.5931,-7.5916,-7.5888,-7.5892,-7.5824,-7.5883,-7.5778,-7.5857,-7.5782,-7.5795,-7.578,-7.5785,-7.5786,-7.567,-7.5845,-7.6135,-7.6162,-7.5788,-7.5785,-7.5783,0,-7.596,-7.5999,-7.6073,-7.6072,-7.6031,-7.6068,-7.6053,-7.6032,-7.6045,-7.6051,-7.6059,-7.6073,-7.6081,-7.6093,-7.6031,-7.596,-7.6119,-7.6008,-7.6097,-7.6099,-7.6135,-7.6134,-7.6431,-7.6145,-7.6145,-7.6144,-7.6144,0,-7.6187,-7.6263,-7.6169,-7.6215,-7.6296,-7.6216,-7.63,-7.6273,-7.6256,-7.6295,-7.6204,-7.6243,-7.6159,-7.619,-7.6142,-7.6214,-7.6219,-7.6198,-7.6184,-7.6206,-7.6209,-7.6213,-7.6199,-7.6152,-7.615,-7.6149,-7.6147,0,-7.644,-7.6381,-7.6455,-7.6408,-7.6399,-7.6461,-7.6421,-7.6462,-7.6422,-7.6473,-7.6481,-7.6419,-7.645,-7.6389,-7.6413,-7.638,-7.6482,-7.6449,-7.6487,-7.6477,-7.6569,-7.6562,-7.688,-7.6917,-7.6609,-7.6612,-7.6614,0,-7.6589,-7.6644,-7.6603,-7.6622,-7.6611,-7.6643,-7.6655,-7.6578,-7.6594,-7.6581,-7.6624,-7.6647,-7.6661,-7.6716,-7.6674,-7.6691,-7.6657,-7.6767,-7.6659,-7.6679,-7.6658,-7.6655,-7.666,-7.679,-7.6793,-7.6796,-7.6799,0,-7.6858,-7.6825,-7.6844,-7.6854,-7.687,-7.6874,-7.6872,-7.6893,-7.6811,-7.6834,-7.6864,-7.6875,-7.6898,-7.6922,-7.6929,-7.6914,-7.6844,-7.6833,-7.6855,-7.6877,-7.6896,-7.6886,-7.6547,-7.6826,-7.6823,-7.6821,-7.682,-7.6819,-7.7062,-7.7106,-7.7083,-7.7108,-7.7098,-7.7097,-7.7133,-7.7097,-7.712,-7.7131,-7.7085,-7.7125,-7.7108,-7.711,-7.7102,-7.7133,-7.7084,-7.7115,-7.7123,-7.7132,-7.7146,-7.6892,-7.7134,-7.7133,-7.7132,-7.7132,-7.7131,0,-7.7326,-7.7306,-7.7329,-7.7327,-7.7347,-7.7277,-7.7271,-7.7292,-7.7328,-7.7317,-7.7332,-7.7366,-7.7389,-7.7348,-7.7365,-7.7397,-7.7365,-7.7404,-7.7401,-7.7398,-7.719,-7.7169,-7.7429,-7.7429,-7.7429,-7.7429,-7.7429,-7.7429,-7.7466,-7.7535,-7.75,-7.7563,-7.7542,-7.7579,-7.7582,-7.7581,-7.7571,-7.7613,-7.7631,-7.7603,-7.7581,-7.7594,-7.7612,-7.7599,-7.761,-7.766,-7.7636,-7.7442,-7.7413,-7.7385,-7.7365,-7.7663,-7.7663,-7.7842,-7.7844,-7.7845]}]]